SL-8 DEB, 21404

Orbit data source: Space-Track

SL-8 DEB, 21404 is space debris in LEO originally from a launch on Tue, 12 Feb 1991 UTC launched from the Plesetsk Missile And Space Complex (PKMTR). Debris objects in space refer to the collection of defunct objects orbiting the Earth. Examples of debris include non-operational satellites, rocket bodies, and fragments generated from explosions, collisions, or faulty payload assembly.

Loading next visibility...
Identifier
21404, 1991-009BT
Orbit
LEO
Country
Flag of CISCIS
Related business
Manufacturer
Unknown
Mission
Spacecraft
Bus & Motor
Unknown
Mass
Unknown
Launch date (UTC)
1991-02-12 (35 years ago)
Launch vehicle
Unknown
Launch site
Plesetsk Missile And Space Complex (PKMTR)
Object type
Payload
Rocket body
Debris
Shape & HBR
Unknown shape, 0.1 m
Radar Cross Section
Medium (>0.1 m² and <1 m²)

Expand to show TLE details & history
Last TLE update: 12 hours ago

TLE from 12 hours ago
0 SL-8 DEB
1 21404U 91009BT  26171.41927190  .00000033  00000-0  34631-3 0  9996
2 21404  73.9566 159.2216 0185641 317.3471 197.1215 12.41502684597309
Epoch: 2026-06-20T10:03Z
TLE epoch observation values (Epoch: 2026-06-20T10:03:45.092Z)
Latitude
25.08461°
Longitude
-88.04928°
Altitude
1,642.793 km
Speed
6.99 km/s
True Right ascension
22h 06m 05s
True Declination
24° 58' 03"
Sunlit
Object was in daylight at epoch
Visualization orbit readout
Latitude
Unknown
Longitude
Unknown
Altitude
Unknown
Speed
Unknown
Apparent Right ascension
Unknown
Apparent Declination
Unknown
Sunlit
N/A
Visualization observer readout
Local Sidereal Time
08:46:33
Azimuth
Unknown
Elevation
Unknown
Doppler factor
Unknown
Orbital elements
Apogee altitude
1,644.304 km
Perigee altitude
1,351.874 km
Semi-major axis
7,876.226 km
Eccentricity
0.01856
Inclination
73.9566°
RAAN
159.2216°
Arg. of periapsis
317.3471°
True anomaly
196.50884°
Mean anomaly
197.1215°
Eccentric anomaly
196.81383°
Mean motion
3.10503 °/min
Orbital period
115.94 mins
BSTAR
0.00034631
Loading maneuver chart data...
Computing Atmospheric mass density...
Loading historical data...
Loading historical data...
Loading historical data...
Loading historical data...
Loading historical data...
Loading historical data...
Loading historical data...

Documentation

Showing up to 5 results
|